Tracking 30106 objects as of 23-Jan-2025
HD Live streaming from Space Station
objects crossing your sky now

OBJECT P

Track OBJECT P now!
10-day predictions


NORAD ID: 54695
Int'l Code: 2022-167P
Perigee: 503.1 km
Apogee: 516.7 km
Inclination: 97.6 °
Period: 94.7 minutes
Semi major axis: 6880 km
RCS: Unknown
Launch date: December 9, 2022
Source: People's Republic of China (PRC)
Launch site: Yellow Sea Launch Area, China (YSLA)
Your satellite tracking list
Your tracking list is empty




NASA's NSSDC Master Catalog

Two Line Element Set (TLE):
1 54695U 22167P   25023.54732430  .00018518  00000-0  83535-3 0  9997
2 54695  97.6323 173.4624 0009828 103.3088 256.9244 15.21022122117557
Source of the keplerian elements: AFSPC